Probability
0 0 0 0 0 0 0 0 0 0 0 0 0 0 0 0 0 0 0 0 0 0 0 0 0 0 0 0 0 0 0 0 0 0 0 0 1 3 3 2 1 1 2
0 0 0 0 0 0 0 0 0 0 0 0 0 0 0 0 0 0 0 0 0 0 0 0 0 0 0 0 0 0 0 0 0 0 0 0 2 3 3 1 1 2 3
0 0 0 0 0 0 0 0 0 1 2 1 0 0 0 0 0 0 0 0 0 0 0 0 0 0 0 0 0 0 0 0 0 0 0 0 1 2 2 1 0 1 1
0 0 0 0 0 0 0 0 1 1 2 1 0 0 0 0 0 0 0 0 0 0 0 0 0 0 0 0 0 0 0 0 0 1 0 0 0 1 1 0 0 0 0
1 1 0 0 0 0 0 1 1 1 1 1 0 0 0 0 0 0 0 0 0 0 0 0 0 0 0 0 0 0 0 0 0 0 0 0 0 0 0 0 0 0 0
2 1 0 0 0 0 0 0 0 0 0 0 0 0 0 0 0 0 0 0 0 0 0 0 0 0 0 0 0 0 0 0 0 0 0 0 0 0 0 0 0 0 0
1 1 0 0 0 0 0 0 0 0 0 0 0 0 0 0 0 0 0 0 0 0 0 0 0 0 0 0 0 0 0 0 0 0 0 0 0 0 0 0 0 0 0
1 0 0 0 0 0 0 0 0 0 0 0 0 0 0 0 0 0 0 0 0 0 0 0 0 0 0 0 0 0 0 1 1 1 1 0 0 0 0 0 0 0 0
2 1 0 0 0 0 0 0 0 0 0 0 0 0 0 0 0 0 0 0 0 0 0 0 0 0 0 0 0 0 0 0 1 1 2 1 0 0 0 0 0 0 0
2 1 0 0 0 0 0 0 0 0 0 0 1 0 0 0 0 0 0 0 0 0 0 0 0 0 0 0 0 0 0 0 0 1 2 2 1 0 0 0 0 0 0
1 0 0 0 0 0 0 0 0 0 0 0 0 0 0 0 0 0 0 0 0 0 1 0 0 0 0 0 0 0 0 0 0 0 1 2 2 1 0 0 0 0 0
0 0 0 0 0 0 0 0 0 0 0 0 0 0 0 0 0 0 0 0 0 0 0 0 0 0 0 0 0 0 0 0 0 0 1 1 1 1 1 1 1 1 1
0 0 0 0 0 0 0 0 0 0 0 0 0 0 0 0 0 0 0 0 0 0 0 0 0 0 0 0 0 0 0 0 0 0 0 0 0 0 0 1 2 3 4
0 0 0 0 0 0 0 0 0 0 0 0 0 0 0 0 0 0 0 0 0 0 0 0 0 0 0 0 0 0 0 0 0 0 0 0 0 0 0 0 2 4 5
0 0 0 0 0 0 0 0 0 0 0 0 0 0 0 0 0 0 0 0 0 0 0 0 0 0 0 0 0 0 0 0 0 0 0 0 0 0 0 0 1 2 3
0 0 0 0 0 0 0 0 0 0 0 0 0 0 0 0 0 0 0 0 0 0 0 0 0 0 0 0 0 0 0 0 0 0 0 0 0 0 0 0 0 1 1
0 0 0 0 0 0 0 0 0 0 0 0 0 0 0 0 0 0 0 0 0 0 0 0 0 0 0 0 0 0 0 0 0 0 0 0 0 0 0 0 0 0 0
0 0 0 0 0 0 0 0 0 0 0 0 0 0 0 0 0 0 0 0 0 0 0 0 0 0 0 0 0 0 0 0 0 0 0 0 0 0 0 0 0 0 0
0 0 0 0 0 0 0 0 0 0 0 0 0 0 0 0 0 0 0 0 0 0 0 0 0 0 0 0 0 0 0 0 0 0 0 0 0 0 0 0 0 0 0
0 0 1 1 1 0 0 0 0 0 0 0 0 0 0 0 0 0 0 0 0 0 0 0 0 0 0 0 0 0 0 0 0 0 0 0 0 0 0 0 0 0 0
0 0 1 1 1 0 1 1 0 0 0 0 0 0 0 0 0 0 0 0 0 0 0 0 0 0 0 0 0 0 0 0 0 0 0 0 0 0 0 0 0 0 0
1 1 1 1 0 0 1 2 1 1 1 0 1 1 1 0 0 0 0 0 0 0 0 0 0 0 0 0 0 0 0 0 0 0 0 0 0 0 0 0 0 0 0
2 2 2 1 1 1 2 3 3 2 2 1 2 2 1 0 0 0 0 0 0 0 0 0 0 0 0 0 0 0 0 0 0 0 0 0 0 0 0 0 0 0 0
3 3 3 2 2 2 3 3 3 4 3 3 3 2 0 0 0 0 0 0 0 0 0 0 0 0 0 0 0 0 0 0 0 0 0 0 0 0 0 0 0 0 0
4 4 4 3 3 3 3 3 4 5 5 4 4 3 1 1 1 0 0 0 0 0 0 0 0 0 0 0 0 0 0 0 0 0 0 0 0 0 0 0 0 0 0
5 6 5 3 2 2 3 4 5 6 4 3 4 3 2 2 2 1 1 1 0 0 0 0 0 0 0 0 0 0 0 0 0 0 0 0 0 0 0 0 0 0 0
Wind_Speed
5 7 7 7 8 8 9 8 8 8 8 8 8 9 9 9 9 9 9 10 10 9 9 9 9 9 9 9 9 9 8 8 7 7 7 7 8 8 8 7 6 5 8
7 8 8 8 8 8 8 8 9 8 8 8 8 9 9 9 9 9 9 10 10 9 9 9 10 10 9 9 9 8 8 7 6 6 5 6 8 9 9 9 9 6 8
7 8 8 8 8 8 8 8 8 9 8 8 9 9 9 10 9 9 9 10 10 10 9 10 10 10 10 9 9 8 7 6 5 4 3 3 5 9 9 9 9 8 8
8 8 8 8 8 8 8 8 8 8 9 9 9 9 9 9 9 10 9 10 10 10 10 10 10 10 10 10 9 8 7 6 5 5 3 4 5 9 9 9 9 8 8
9 9 8 9 8 8 8 9 9 9 9 9 9 9 9 9 9 9 9 10 10 10 10 10 10 10 10 9 8 8 7 7 7 5 4 4 5 8 9 8 8 7 7
8 9 8 9 9 9 9 9 9 9 9 9 9 9 9 9 9 9 10 9 10 10 10 10 9 10 9 9 9 8 8 7 6 3 4 4 4 7 8 7 7 7 6
8 8 9 9 10 10 10 9 9 9 9 9 9 9 9 9 9 9 9 9 9 9 10 9 9 9 9 9 8 8 7 6 3 2 4 4 5 8 7 7 7 7 6
8 9 9 10 10 10 10 10 9 9 9 9 8 8 8 8 9 9 9 9 9 9 10 10 9 9 9 8 8 8 8 7 5 6 5 5 7 8 7 7 7 7 7
6 7 7 7 8 10 10 9 9 8 8 8 7 7 7 7 8 8 8 8 9 9 9 9 9 9 8 8 7 7 7 8 5 4 7 5 7 9 8 8 8 8 7
5 5 6 6 7 7 7 8 8 7 7 6 6 5 5 6 6 7 7 8 8 9 8 8 7 7 7 6 6 6 6 6 5 6 4 5 9 9 9 9 8 8 8
4 4 4 4 5 5 6 8 6 6 5 5 4 4 2 2 3 4 7 8 8 8 7 6 5 5 4 3 4 5 4 3 5 5 5 9 10 10 10 10 10 10 10
4 4 4 4 4 4 4 5 2 3 3 2 2 2 1 2 3 5 6 7 6 6 5 4 2 2 0 0 1 3 2 5 5 5 6 12 12 11 11 11 11 11 11
4 4 4 4 5 4 3 3 2 1 1 2 3 3 2 2 2 2 2 2 2 3 1 1 0 1 2 2 3 3 4 5 4 5 6 12 12 12 12 12 12 12 11
5 4 4 4 4 5 4 3 2 1 2 2 2 3 2 2 2 2 2 1 1 1 2 2 2 4 4 4 5 5 5 4 5 4 6 12 12 12 12 12 12 12 12
4 3 3 3 4 4 4 2 3 3 3 3 2 2 3 2 2 2 2 2 2 2 2 2 3 4 4 5 5 5 5 6 6 5 4 11 12 12 12 12 12 12 12
4 3 3 2 4 4 4 2 3 3 2 2 2 2 3 2 2 2 3 3 3 2 2 2 3 3 3 3 4 4 5 4 5 5 4 6 10 11 11 11 11 11 12
4 3 4 3 3 4 4 3 3 2 2 2 2 2 3 3 3 3 3 3 2 2 3 3 3 3 3 3 3 4 4 3 3 4 5 4 4 8 11 11 10 10 11
4 3 4 3 3 4 4 3 2 2 2 2 2 2 2 2 4 3 2 2 2 3 2 2 2 3 3 3 3 3 3 2 3 3 3 3 3 4 6 10 10 10 10
4 4 4 3 3 4 4 2 2 2 2 2 2 2 2 3 4 3 2 2 3 2 2 2 2 2 2 2 2 2 2 2 2 3 3 3 4 4 3 6 9 9 9
3 4 4 4 3 3 3 2 2 2 1 2 2 2 2 2 3 3 2 3 2 2 2 2 2 2 1 1 2 2 1 1 2 2 3 3 3 4 4 4 4 5 8
4 4 5 4 3 2 2 1 1 1 1 1 1 2 2 1 2 3 2 2 2 2 1 1 1 2 1 1 1 1 1 1 2 2 2 2 3 3 3 4 3 3 3
4 3 4 3 3 3 2 2 1 1 1 1 1 1 1 1 2 2 2 2 1 1 1 1 1 1 1 0 0 0 0 2 2 1 1 1 2 2 2 3 4 4 4
3 4 4 4 3 3 3 2 1 1 1 1 1 1 1 1 1 2 2 2 1 1 1 1 1 1 0 1 1 0 1 1 1 1 0 1 2 2 1 2 3 4 5
3 3 4 3 3 3 3 2 2 2 1 2 2 2 2 1 1 1 1 2 2 2 2 1 1 1 1 1 2 1 0 1 2 0 1 1 1 2 1 2 3 3 4
4 3 3 3 3 3 3 3 2 1 1 1 2 2 2 2 2 2 2 2 1 1 2 2 1 1 1 1 1 1 1 1 0 2 1 1 0 0 1 2 2 2 4
5 4 2 3 3 2 2 3 2 1 1 1 1 1 1 1 1 1 1 1 1 1 1 1 1 2 1 1 1 1 1 0 1 1 1 2 1 1 1 2 2 2 3
Wind_Direction
87 88 78 71 69 72 70 70 69 68 69 68 71 73 71 71 73 73 69 65 64 64 63 61 60 60 62 60 59 59 61 63 65 68 71 73 72 68 64 66 70 77 82
101 98 85 76 72 75 73 74 72 70 71 71 73 75 73 72 73 74 75 71 69 66 64 64 62 60 59 58 59 59 61 61 63 66 73 76 73 69 63 61 63 69 73
100 103 92 78 72 75 77 79 78 74 71 72 75 76 76 75 72 73 74 73 69 67 66 65 63 61 60 58 58 58 55 52 49 52 59 83 84 75 67 60 61 65 66
98 97 89 84 78 77 82 84 81 77 73 74 74 74 76 77 74 71 73 71 69 66 65 66 64 60 60 58 58 56 49 37 29 32 47 67 77 81 71 62 59 60 62
91 91 92 88 82 81 86 87 83 80 78 79 75 74 76 76 75 72 70 70 68 66 66 67 65 63 61 57 53 49 42 34 26 28 52 65 71 81 75 68 62 62 63
96 99 100 94 91 88 87 88 85 83 83 82 78 75 74 74 75 74 71 70 69 67 69 69 68 65 63 59 51 45 38 33 25 36 56 68 77 81 79 74 70 69 66
101 105 107 103 99 95 91 87 83 82 80 78 77 75 75 75 76 74 72 72 71 70 70 68 69 67 63 57 49 40 35 31 47 57 75 75 81 84 80 76 73 71 70
109 110 111 110 105 98 93 87 85 85 83 81 80 78 78 80 81 78 75 75 74 72 71 68 69 68 64 58 49 39 29 24 47 56 66 68 76 80 79 80 79 77 78
105 115 122 127 118 108 101 95 92 91 90 89 89 89 89 88 86 82 77 77 76 75 74 71 70 70 68 59 47 37 30 27 34 43 61 61 71 78 78 77 77 77 74
100 109 125 135 134 131 121 111 110 107 105 103 101 101 103 103 100 93 85 81 81 80 80 78 76 72 66 54 39 26 27 26 45 54 53 62 70 76 79 78 76 74 72
95 103 107 110 113 123 131 127 133 130 131 129 132 139 138 133 122 104 93 93 93 92 91 90 85 79 74 55 31 17 23 53 63 61 51 65 71 75 77 78 77 75 74
112 114 109 107 107 107 105 120 140 131 136 152 120 118 116 92 90 103 108 106 110 110 104 97 86 73 81 78 58 38 36 57 61 65 59 68 71 73 73 74 76 76 74
112 107 116 115 115 107 92 102 84 85 107 96 86 87 80 83 99 105 117 127 140 143 129 101 86 62 62 60 56 60 57 59 62 64 61 70 71 71 72 74 75 76 76
114 110 109 116 116 116 107 103 112 95 74 68 62 75 68 59 59 59 71 74 94 89 67 55 49 52 49 56 58 61 66 67 73 71 64 70 72 73 74 76 77 77 76
120 121 117 119 114 107 101 111 104 82 63 67 43 60 80 72 67 64 69 48 52 55 59 44 53 52 47 47 56 62 68 76 83 80 70 70 72 73 76 77 78 79 79
130 128 116 110 106 107 115 116 93 89 93 77 47 32 68 78 73 67 58 55 48 40 39 49 56 54 55 52 55 63 64 70 87 97 96 78 75 75 76 77 76 78 80
130 126 125 118 109 103 99 87 91 93 91 86 61 29 55 76 82 80 62 56 53 42 36 46 51 48 54 52 54 60 67 55 74 99 106 103 88 78 77 77 77 78 79
133 130 118 119 105 94 94 97 95 91 82 82 78 40 33 63 79 80 74 63 63 59 44 39 56 54 52 42 44 42 59 52 46 74 99 107 108 95 83 84 80 79 81
142 138 131 122 108 101 98 105 99 99 92 84 80 56 29 53 71 78 70 69 61 60 46 32 46 60 64 57 67 53 44 53 46 55 69 91 101 107 99 93 85 81 82
142 137 134 123 120 116 112 105 86 79 85 84 85 81 51 49 75 84 79 82 70 69 56 45 47 56 75 55 67 61 38 75 62 49 47 58 82 102 113 110 96 82 82
154 145 133 135 148 138 119 115 119 114 101 83 95 96 81 74 92 96 81 76 76 77 67 66 60 47 56 85 69 41 10 56 75 81 64 59 60 76 99 114 114 102 88
154 148 142 150 152 143 135 143 141 122 128 119 101 110 115 93 94 114 122 111 106 105 76 63 71 40 331 358 113 141 45 8 359 82 94 95 84 74 69 84 96 101 95
162 160 160 162 152 148 147 143 122 107 105 134 154 130 126 123 110 111 126 132 146 157 172 166 160 127 281 312 0 111 125 170 293 336 104 105 96 82 73 77 86 98 103
167 161 159 155 151 151 148 144 148 156 181 185 156 152 162 152 133 141 148 162 180 176 176 203 165 170 169 271 318 338 132 144 139 321 332 18 102 107 104 80 79 85 96
156 153 158 149 138 136 138 146 161 165 172 140 131 153 169 164 164 179 182 202 196 184 185 185 171 192 186 187 226 295 323 348 121 145 215 245 344 138 136 120 114 106 106
152 152 153 149 139 135 134 130 149 158 130 125 136 157 169 153 179 201 189 204 205 197 201 194 189 196 202 191 234 227 204 180 231 179 190 198 195 214 164 137 135 133 125